Tracking 30995 objects as of 5-Jul-2025
HD Live streaming from Space Station
objects crossing your sky now

STARLINK-2068

Track STARLINK-2068 now!
10-day predictions
STARLINK-2068 is classified as:


NORAD ID: 47722
Int'l Code: 2021-017A
Perigee: 553.6 km
Apogee: 555.0 km
Inclination: 53.1 °
Period: 95.6 minutes
Semi major axis: 6925 km
RCS: Unknown
Launch date: March 4, 2021
Source: United States (US)
Launch site: AIR FORCE EASTERN TEST RANGE (AFETR)
Your satellite tracking list
IRIDIUM 106
Track 1 satellite(s)




NASA's NSSDC Master Catalog

Two Line Element Set (TLE):
1 47722U 21017A   25186.52496265  .00002821  00000-0  20812-3 0  9993
2 47722  53.0533 226.4257 0001046  79.3354 280.7753 15.06408660240737
Source of the keplerian elements: AFSPC